Weather reports worldwide

Advertisment
Belgrad, Serbia (13274): temperature & dewpoint: 11.10.2018 23:00:00 - 17.10.2018 23:00:00 (CEST)Belgrad, Serbia (13274): wind speed: 11.10.2018 23:00:00 - 17.10.2018 23:00:00 (CEST)Belgrad, Serbia (13274): wind direction: 11.10.2018 23:00:00 - 17.10.2018 23:00:00 (CEST)Belgrad, Serbia (13274): reduced air pressure: 11.10.2018 23:00:00 - 17.10.2018 23:00:00 (CEST)Belgrad, Serbia (13274): visibility: 11.10.2018 23:00:00 - 17.10.2018 23:00:00 (CEST)
Date & Time tt [°C] td [°C] ff [km/h] ff [kn] dd ppp [hPa] vv [km]
17.10.2018 23:00:00 16,8 7,6 7 4 SE 1019,3 20
17.10.2018 22:00:00 - - - - - - -
17.10.2018 21:00:00 - - - - - - -
17.10.2018 20:00:00 20,3 7,4 11 6 ESE 1018,8 20
17.10.2018 19:00:00 - - - - - - -
17.10.2018 18:00:00 - - - - - - -
17.10.2018 17:00:00 23,6 6,4 7 4 ESE 1018,2 20
17.10.2018 16:00:00 - - - - - - -
17.10.2018 15:00:00 - - - - - - -
17.10.2018 14:00:00 23,6 5,8 11 6 E 1019,6 20
17.10.2018 13:00:00 - - - - - - -
17.10.2018 12:00:00 - - - - - - -
17.10.2018 11:00:00 20,0 6,0 11 6 ESE 1021,3 15
17.10.2018 10:00:00 - - - - - - -
17.10.2018 09:00:00 - - - - - - -
17.10.2018 08:00:00 14,0 4,0 7 4 SE 1021,8 20
17.10.2018 07:00:00 - - - - - - -
17.10.2018 06:00:00 - - - - - - -
17.10.2018 05:00:00 13,1 3,8 4 2 E 1021,6 20
17.10.2018 04:00:00 - - - - - - -
17.10.2018 03:00:00 - - - - - - -
17.10.2018 02:00:00 15,1 4,0 7 4 SE 1021,6 20
17.10.2018 01:00:00 - - - - - - -
17.10.2018 00:00:00 - - - - - - -
16.10.2018 23:00:00 16,7 4,5 11 6 SE 1021,9 20
16.10.2018 22:00:00 - - - - - - -
16.10.2018 21:00:00 - - - - - - -
16.10.2018 20:00:00 19,3 4,7 14 8 ESE 1021,6 20
16.10.2018 19:00:00 - - - - - - -
16.10.2018 18:00:00 - - - - - - -
16.10.2018 17:00:00 24,0 6,8 7 4 ESE 1021,0 20
16.10.2018 16:00:00 - - - - - - -
16.10.2018 15:00:00 - - - - - - -
16.10.2018 14:00:00 23,7 6,8 29 16 SSE 1021,4 20
16.10.2018 13:00:00 - - - - - - -
16.10.2018 12:00:00 - - - - - - -
16.10.2018 11:00:00 20,6 8,1 14 8 SE 1023,0 20
16.10.2018 10:00:00 - - - - - - -
16.10.2018 09:00:00 - - - - - - -
16.10.2018 08:00:00 14,1 6,4 4 2 E 1023,0 20
16.10.2018 07:00:00 - - - - - - -
16.10.2018 06:00:00 - - - - - - -
16.10.2018 05:00:00 14,3 5,3 4 2 SSE 1022,1 20
16.10.2018 04:00:00 - - - - - - -
16.10.2018 03:00:00 - - - - - - -
16.10.2018 02:00:00 14,6 3,1 7 4 SSE 1022,5 20
16.10.2018 01:00:00 - - - - - - -
16.10.2018 00:00:00 - - - - - - -
15.10.2018 23:00:00 17,2 4,5 14 8 ESE 1022,0 20
15.10.2018 22:00:00 - - - - - - -
15.10.2018 21:00:00 - - - - - - -
15.10.2018 20:00:00 17,8 4,0 11 6 SE 1021,2 20
15.10.2018 19:00:00 - - - - - - -
15.10.2018 18:00:00 - - - - - - -
15.10.2018 17:00:00 21,3 3,5 14 8 ESE 1020,6 20
15.10.2018 16:00:00 - - - - - - -
15.10.2018 15:00:00 - - - - - - -
15.10.2018 14:00:00 22,5 5,3 14 8 ESE 1021,4 20
15.10.2018 13:00:00 - - - - - - -
15.10.2018 12:00:00 - - - - - - -
15.10.2018 11:00:00 19,7 5,8 18 10 ESE 1022,7 20
15.10.2018 10:00:00 - - - - - - -
15.10.2018 09:00:00 - - - - - - -
15.10.2018 08:00:00 13,7 4,9 11 6 ESE 1023,1 15
15.10.2018 07:00:00 - - - - - - -
15.10.2018 06:00:00 - - - - - - -
15.10.2018 05:00:00 15,0 5,8 14 8 ESE 1022,8 20
15.10.2018 04:00:00 - - - - - - -
15.10.2018 03:00:00 - - - - - - -
15.10.2018 02:00:00 15,6 4,7 14 8 ESE 1023,0 20
15.10.2018 01:00:00 - - - - - - -
15.10.2018 00:00:00 - - - - - - -
14.10.2018 23:00:00 15,6 3,0 7 4 ESE 1023,2 20
14.10.2018 22:00:00 - - - - - - -
14.10.2018 21:00:00 - - - - - - -
14.10.2018 20:00:00 17,2 2,5 14 8 ESE 1023,1 20
14.10.2018 19:00:00 - - - - - - -
14.10.2018 18:00:00 - - - - - - -
14.10.2018 17:00:00 19,8 1,8 18 10 E 1022,6 20
14.10.2018 16:00:00 - - - - - - -
14.10.2018 15:00:00 - - - - - - -
14.10.2018 14:00:00 21,8 -0,6 18 10 ESE 1023,5 20
14.10.2018 13:00:00 - - - - - - -
14.10.2018 12:00:00 - - - - - - -
14.10.2018 11:00:00 19,0 1,8 14 8 SE 1025,2 20
14.10.2018 10:00:00 - - - - - - -
14.10.2018 09:00:00 - - - - - - -
14.10.2018 08:00:00 13,0 0,9 7 4 SE 1025,4 20
14.10.2018 07:00:00 - - - - - - -
14.10.2018 06:00:00 - - - - - - -
14.10.2018 05:00:00 13,5 3,8 7 4 ESE 1025,4 30
14.10.2018 04:00:00 - - - - - - -
14.10.2018 03:00:00 - - - - - - -
14.10.2018 02:00:00 13,6 7,2 4 2 S 1025,8 20
14.10.2018 01:00:00 - - - - - - -
14.10.2018 00:00:00 - - - - - - -
13.10.2018 23:00:00 16,4 7,9 7 4 SE 1025,9 20
13.10.2018 22:00:00 - - - - - - -
13.10.2018 21:00:00 - - - - - - -
13.10.2018 20:00:00 18,8 10,0 11 6 ESE 1025,9 30
13.10.2018 19:00:00 - - - - - - -
13.10.2018 18:00:00 - - - - - - -
13.10.2018 17:00:00 22,1 8,3 7 4 E 1025,6 30
13.10.2018 16:00:00 - - - - - - -
13.10.2018 15:00:00 - - - - - - -
13.10.2018 14:00:00 23,1 8,3 11 6 ESE 1026,7 30
13.10.2018 13:00:00 - - - - - - -
13.10.2018 12:00:00 - - - - - - -
13.10.2018 11:00:00 20,8 8,5 11 6 ESE 1028,0 20
13.10.2018 10:00:00 - - - - - - -
13.10.2018 09:00:00 - - - - - - -
13.10.2018 08:00:00 15,4 7,7 11 6 SE 1028,0 20
13.10.2018 07:00:00 - - - - - - -
13.10.2018 06:00:00 - - - - - - -
13.10.2018 05:00:00 14,4 8,5 7 4 ESE 1028,1 15
13.10.2018 04:00:00 - - - - - - -
13.10.2018 03:00:00 - - - - - - -
13.10.2018 02:00:00 14,0 8,8 4 2 SSE 1028,1 15
13.10.2018 01:00:00 - - - - - - -
13.10.2018 00:00:00 - - - - - - -
12.10.2018 23:00:00 15,6 8,3 4 2 E 1028,3 15
12.10.2018 22:00:00 - - - - - - -
12.10.2018 21:00:00 - - - - - - -
12.10.2018 20:00:00 18,7 9,2 7 4 ESE 1027,2 15
12.10.2018 19:00:00 - - - - - - -
12.10.2018 18:00:00 - - - - - - -
12.10.2018 17:00:00 22,4 8,1 11 6 E 1025,8 15
12.10.2018 16:00:00 - - - - - - -
12.10.2018 15:00:00 - - - - - - -
12.10.2018 14:00:00 23,7 9,0 11 6 SE 1026,3 15
12.10.2018 13:00:00 - - - - - - -
12.10.2018 12:00:00 - - - - - - -
12.10.2018 11:00:00 20,2 10,3 11 6 ESE 1027,6 15
12.10.2018 10:00:00 - - - - - - -
12.10.2018 09:00:00 - - - - - - -
12.10.2018 08:00:00 14,3 8,6 11 6 SSE 1026,6 15
12.10.2018 07:00:00 - - - - - - -
12.10.2018 06:00:00 - - - - - - -
12.10.2018 05:00:00 14,1 8,8 11 6 SSE 1024,6 20
12.10.2018 04:00:00 - - - - - - -
12.10.2018 03:00:00 - - - - - - -
12.10.2018 02:00:00 15,2 8,6 7 4 ESE 1024,6 20
12.10.2018 01:00:00 - - - - - - -
12.10.2018 00:00:00 - - - - - - -
11.10.2018 23:00:00 15,6 8,3 4 2 SSE 1024,3 20

tt = temperature
td = dewpoint
ff = wind speed
dd = wind direction
ppp = reduced air pressure
vv = visibility

Next stations